Location: Montreal
(45.5000°N, 73.5833°W)
Time: 22:28:41
(UTC-05:00)

Envisat - Pass Details

Date: 09 October 2017
Orbit: 764 x 766 km, 98.2° (Epoch: 12 December)

Event Time Altitude Azimuth Distance (km) Brightness Sun altitude
Exits shadow 21:44:44 24° 260° (W) 1,564 4.9 -35.6°
Maximum altitude 21:45:08 24° 267° (W) 1,555 5.0 -35.7°
Drops below altitude 10° 21:49:13 10° 321° (NW) 2,314 6.2 -36.3°
Sets 21:51:58 0° 335° (NNW) 3,245 7.0 -36.7°
